Time,TemperatureF,DewpointF,PressureIn,WindDirection,WindDirectionDegrees,WindSpeedMPH,WindSpeedGustMPH,Humidity,HourlyPrecipIn,Conditions,Clouds,dailyrainin,SoftwareType,DateUTC
2013-06-23 00:01:00,83.0,64.0,-100.00,South,180,17.0,-999.0,54,-99.99,,,-99.99,,2013-06-23 05:01:00,
2013-06-23 00:11:00,83.0,64.0,-100.00,South,180,17.0,-999.0,54,-99.99,,,-99.99,,2013-06-23 05:11:00,
2013-06-23 00:22:00,82.0,64.0,-100.00,South,180,19.0,-999.0,54,-99.99,,,-99.99,,2013-06-23 05:22:00,
2013-06-23 00:32:00,82.0,65.0,-100.00,South,180,17.0,-999.0,56,-99.99,,,-99.99,,2013-06-23 05:32:00,
2013-06-23 00:41:00,82.0,65.0,-100.00,South,180,17.0,-999.0,56,-99.99,,,-99.99,,2013-06-23 05:41:00,
2013-06-23 00:51:00,82.0,65.0,-100.00,South,180,21.0,-999.0,56,-99.99,,,-99.99,,2013-06-23 05:51:00,
2013-06-23 01:02:00,82.0,65.0,-100.00,South,180,23.0,-999.0,56,-99.99,,,-99.99,,2013-06-23 06:02:00,
2013-06-23 01:12:00,82.0,65.0,-100.00,South,180,23.0,-999.0,56,-99.99,,,-99.99,,2013-06-23 06:12:00,
2013-06-23 01:22:00,81.0,65.0,-100.00,South,180,20.0,-999.0,57,-99.99,,,-99.99,,2013-06-23 06:22:00,
2013-06-23 01:33:00,81.0,65.0,-100.00,South,180,23.0,-999.0,58,-99.99,,,-99.99,,2013-06-23 06:33:00,
2013-06-23 01:43:00,81.0,65.0,-100.00,South,180,23.0,-999.0,58,-99.99,,,-99.99,,2013-06-23 06:43:00,
2013-06-23 01:52:00,80.0,65.0,-100.00,South,180,22.0,-999.0,60,-99.99,,,-99.99,,2013-06-23 06:52:00,
2013-06-23 02:02:00,80.0,66.0,-100.00,South,180,22.0,-999.0,61,-99.99,,,-99.99,,2013-06-23 07:02:00,
2013-06-23 02:12:00,80.0,66.0,-100.00,South,180,22.0,-999.0,61,-99.99,,,-99.99,,2013-06-23 07:12:00,
2013-06-23 02:22:00,80.0,66.0,-100.00,South,180,22.0,-999.0,61,-99.99,,,-99.99,,2013-06-23 07:22:00,
2013-06-23 02:34:00,80.0,66.0,-100.00,South,180,23.0,-999.0,62,-99.99,,,-99.99,,2013-06-23 07:34:00,
2013-06-23 02:43:00,80.0,66.0,-100.00,South,180,23.0,-999.0,62,-99.99,,,-99.99,,2013-06-23 07:43:00,
2013-06-23 02:53:00,81.0,67.0,-100.00,South,180,24.0,-999.0,62,-99.99,,,-99.99,,2013-06-23 07:53:00,
2013-06-23 03:02:00,81.0,67.0,-100.00,South,180,22.0,-999.0,62,-99.99,,,-99.99,,2013-06-23 08:02:00,
2013-06-23 03:11:00,81.0,67.0,-100.00,South,180,22.0,-999.0,62,-99.99,,,-99.99,,2013-06-23 08:11:00,
2013-06-23 03:22:00,81.0,67.0,-100.00,South,180,23.0,-999.0,62,-99.99,,,-99.99,,2013-06-23 08:22:00,
2013-06-23 03:33:00,81.0,67.0,-100.00,South,180,22.0,-999.0,63,-99.99,,,-99.99,,2013-06-23 08:33:00,
2013-06-23 03:42:00,81.0,67.0,-100.00,South,180,22.0,-999.0,63,-99.99,,,-99.99,,2013-06-23 08:42:00,
2013-06-23 03:53:00,81.0,68.0,-100.00,South,180,25.0,-999.0,64,-99.99,,,-99.99,,2013-06-23 08:53:00,
2013-06-23 04:02:00,81.0,68.0,-100.00,South,180,23.0,-999.0,64,-99.99,,,-99.99,,2013-06-23 09:02:00,
2013-06-23 04:12:00,81.0,68.0,-100.00,South,180,23.0,-999.0,64,-99.99,,,-99.99,,2013-06-23 09:12:00,
2013-06-23 04:22:00,81.0,68.0,-100.00,South,180,23.0,-999.0,65,-99.99,,,-99.99,,2013-06-23 09:22:00,
2013-06-23 04:34:00,81.0,68.0,-100.00,SSW,203,21.0,-999.0,64,-99.99,,,-99.99,,2013-06-23 09:34:00,
2013-06-23 04:43:00,81.0,68.0,-100.00,SSW,203,21.0,-999.0,64,-99.99,,,-99.99,,2013-06-23 09:43:00,
2013-06-23 04:54:00,81.0,68.0,-100.00,SSW,203,17.0,-999.0,64,-99.99,,,-99.99,,2013-06-23 09:54:00,
2013-06-23 05:02:00,81.0,68.0,-100.00,WNW,293,13.0,-999.0,65,-99.99,,,-99.99,,2013-06-23 10:02:00,
2013-06-23 05:11:00,81.0,68.0,-100.00,WNW,293,13.0,-999.0,65,-99.99,,,-99.99,,2013-06-23 10:11:00,
2013-06-23 05:22:00,72.0,61.0,-100.00,NNE,23,24.0,-999.0,67,-99.99,,,-99.99,,2013-06-23 10:22:00,
2013-06-23 05:34:00,70.0,61.0,-100.00,NNE,23,18.0,-999.0,74,-99.99,,,-99.99,,2013-06-23 10:34:00,
2013-06-23 05:43:00,70.0,61.0,-100.00,NNE,23,18.0,-999.0,74,-99.99,,,-99.99,,2013-06-23 10:43:00,
2013-06-23 06:33:00,62.0,61.0,-100.00,North,0,27.0,-999.0,98,-99.99,,,-99.99,,2013-06-23 11:33:00,
2013-06-23 06:43:00,62.0,61.0,-100.00,North,0,27.0,-999.0,98,-99.99,,,-99.99,,2013-06-23 11:43:00,
2013-06-23 06:53:00,62.0,61.0,-100.00,NNE,23,18.0,-999.0,98,-99.99,,,-99.99,,2013-06-23 11:53:00,
2013-06-23 07:01:00,62.0,61.0,-100.00,NE,45,20.0,-999.0,98,-99.99,,,-99.99,,2013-06-23 12:01:00,
2013-06-23 07:22:00,62.0,61.0,-100.00,ENE,68,22.0,-999.0,98,-99.99,,,-99.99,,2013-06-23 12:22:00,
2013-06-23 07:33:00,62.0,61.0,-100.00,East,90,10.0,-999.0,98,-99.99,,,-99.99,,2013-06-23 12:33:00,
2013-06-23 07:42:00,62.0,61.0,-100.00,East,90,10.0,-999.0,98,-99.99,,,-99.99,,2013-06-23 12:42:00,
2013-06-23 07:53:00,62.0,61.0,-100.00,East,90,16.0,-999.0,98,-99.99,,,-99.99,,2013-06-23 12:53:00,
2013-06-23 08:01:00,62.0,62.0,-100.00,ESE,113,14.0,-999.0,98,-99.99,,,-99.99,,2013-06-23 13:01:00,
2013-06-23 08:11:00,62.0,62.0,-100.00,ESE,113,14.0,-999.0,98,-99.99,,,-99.99,,2013-06-23 13:11:00,
2013-06-23 08:23:00,63.0,62.0,-100.00,ESE,113,16.0,-999.0,98,-99.99,,,-99.99,,2013-06-23 13:23:00,
2013-06-23 08:34:00,63.0,62.0,-100.00,ESE,113,15.0,-999.0,98,-99.99,,,-99.99,,2013-06-23 13:34:00,
2013-06-23 08:43:00,63.0,62.0,-100.00,ESE,113,15.0,-999.0,98,-99.99,,,-99.99,,2013-06-23 13:43:00,
2013-06-23 08:54:00,63.0,63.0,-100.00,ESE,113,11.0,-999.0,98,-99.99,,,-99.99,,2013-06-23 13:54:00,
2013-06-23 09:04:00,64.0,63.0,-100.00,SE,135,13.0,-999.0,98,-99.99,,,-99.99,,2013-06-23 14:04:00,
2013-06-23 09:22:00,64.0,63.0,-100.00,SE,135,14.0,-999.0,96,-99.99,,,-99.99,,2013-06-23 14:22:00,
2013-06-23 09:34:00,64.0,62.0,-100.00,SE,135,22.0,-999.0,93,-99.99,,,-99.99,,2013-06-23 14:34:00,
2013-06-23 09:44:00,64.0,62.0,-100.00,SE,135,22.0,-999.0,93,-99.99,,,-99.99,,2013-06-23 14:44:00,
2013-06-23 09:52:00,64.0,61.0,-100.00,SE,135,23.0,-999.0,89,-99.99,,,-99.99,,2013-06-23 14:52:00,
2013-06-23 10:05:00,65.0,62.0,-100.00,SE,135,22.0,-999.0,89,-99.99,,,-99.99,,2013-06-23 15:05:00,
2013-06-23 10:11:00,65.0,62.0,-100.00,SE,135,22.0,-999.0,89,-99.99,,,-99.99,,2013-06-23 15:11:00,
2013-06-23 10:22:00,66.0,63.0,-100.00,SE,135,17.0,-999.0,88,-99.99,,,-99.99,,2013-06-23 15:22:00,
2013-06-23 10:35:00,67.0,63.0,-100.00,SE,135,14.0,-999.0,86,-99.99,,,-99.99,,2013-06-23 15:35:00,
2013-06-23 10:43:00,67.0,63.0,-100.00,SE,135,14.0,-999.0,86,-99.99,,,-99.99,,2013-06-23 15:43:00,
2013-06-23 10:53:00,68.0,63.0,-100.00,SE,135,12.0,-999.0,84,-99.99,,,-99.99,,2013-06-23 15:53:00,
2013-06-23 11:06:00,69.0,64.0,-100.00,SE,135,10.0,-999.0,83,-99.99,,,-99.99,,2013-06-23 16:06:00,
2013-06-23 11:22:00,70.0,64.0,-100.00,SE,135,11.0,-999.0,81,-99.99,,,-99.99,,2013-06-23 16:22:00,
2013-06-23 11:36:00,70.0,64.0,-100.00,SE,135,14.0,-999.0,81,-99.99,,,-99.99,,2013-06-23 16:36:00,
2013-06-23 11:42:00,70.0,64.0,-100.00,SE,135,14.0,-999.0,81,-99.99,,,-99.99,,2013-06-23 16:42:00,
2013-06-23 11:53:00,70.0,64.0,-100.00,SSE,158,16.0,-999.0,81,-99.99,,,-99.99,,2013-06-23 16:53:00,
2013-06-23 12:03:00,72.0,66.0,-100.00,South,180,11.0,-999.0,81,-99.99,,,-99.99,,2013-06-23 17:03:00,
2013-06-23 12:11:00,72.0,66.0,-100.00,South,180,11.0,-999.0,81,-99.99,,,-99.99,,2013-06-23 17:11:00,
2013-06-23 12:22:00,73.0,67.0,-100.00,South,180,12.0,-999.0,80,-99.99,,,-99.99,,2013-06-23 17:22:00,
2013-06-23 12:33:00,75.0,67.0,-100.00,South,180,11.0,-999.0,77,-99.99,,,-99.99,,2013-06-23 17:33:00,
2013-06-23 12:43:00,75.0,67.0,-100.00,South,180,11.0,-999.0,77,-99.99,,,-99.99,,2013-06-23 17:43:00,
2013-06-23 13:42:00,81.0,70.0,-100.00,South,180,16.0,-999.0,68,-99.99,,,-99.99,,2013-06-23 18:42:00,
2013-06-23 14:01:00,82.0,70.0,-100.00,SSW,203,14.0,-999.0,66,-99.99,,,-99.99,,2013-06-23 19:01:00,
2013-06-23 14:11:00,82.0,70.0,-100.00,SSW,203,14.0,-999.0,66,-99.99,,,-99.99,,2013-06-23 19:11:00,
2013-06-23 14:21:00,83.0,70.0,-100.00,South,180,12.0,-999.0,66,-99.99,,,-99.99,,2013-06-23 19:21:00,
2013-06-23 14:32:00,84.0,71.0,-100.00,South,180,12.0,-999.0,64,-99.99,,,-99.99,,2013-06-23 19:32:00,
2013-06-23 14:43:00,84.0,71.0,-100.00,South,180,12.0,-999.0,64,-99.99,,,-99.99,,2013-06-23 19:43:00,
2013-06-23 14:53:00,86.0,71.0,-100.00,South,180,8.0,-999.0,61,-99.99,,,-99.99,,2013-06-23 19:53:00,
2013-06-23 15:02:00,85.0,71.0,-100.00,SSE,158,11.0,-999.0,61,-99.99,,,-99.99,,2013-06-23 20:02:00,
2013-06-23 15:12:00,85.0,71.0,-100.00,SSE,158,11.0,-999.0,61,-99.99,,,-99.99,,2013-06-23 20:12:00,
2013-06-23 15:24:00,87.0,72.0,-100.00,SSE,158,7.0,-999.0,60,-99.99,,,-99.99,,2013-06-23 20:24:00,
2013-06-23 15:42:00,89.0,72.0,-100.00,SE,135,3.0,-999.0,57,-99.99,,,-99.99,,2013-06-23 20:42:00,
2013-06-23 15:53:00,90.0,72.0,-100.00,SSE,158,7.0,-999.0,55,-99.99,,,-99.99,,2013-06-23 20:53:00,
2013-06-23 16:01:00,90.0,71.0,-100.00,SE,135,5.0,-999.0,54,-99.99,,,-99.99,,2013-06-23 21:01:00,
2013-06-23 16:22:00,89.0,72.0,-100.00,East,90,3.0,-999.0,57,-99.99,,,-99.99,,2013-06-23 21:22:00,
2013-06-23 16:33:00,89.0,72.0,-100.00,SE,135,7.0,-999.0,57,-99.99,,,-99.99,,2013-06-23 21:33:00,
2013-06-23 16:44:00,89.0,72.0,-100.00,SE,135,7.0,-999.0,57,-99.99,,,-99.99,,2013-06-23 21:44:00,
2013-06-23 16:52:00,89.0,73.0,-100.00,SE,135,8.0,-999.0,59,-99.99,,,-99.99,,2013-06-23 21:52:00,
2013-06-23 17:01:00,89.0,72.0,-100.00,East,90,4.0,-999.0,56,-99.99,,,-99.99,,2013-06-23 22:01:00,
2013-06-23 17:11:00,89.0,72.0,-100.00,East,90,4.0,-999.0,56,-99.99,,,-99.99,,2013-06-23 22:11:00,
2013-06-23 17:22:00,90.0,72.0,-100.00,ESE,113,7.0,-999.0,55,-99.99,,,-99.99,,2013-06-23 22:22:00,
2013-06-23 17:32:00,89.0,73.0,-100.00,ESE,113,10.0,-999.0,59,-99.99,,,-99.99,,2013-06-23 22:32:00,
2013-06-23 17:43:00,89.0,73.0,-100.00,ESE,113,10.0,-999.0,59,-99.99,,,-99.99,,2013-06-23 22:43:00,
2013-06-23 17:53:00,90.0,74.0,-100.00,SE,135,10.0,-999.0,58,-99.99,,,-99.99,,2013-06-23 22:53:00,
2013-06-23 18:01:00,88.0,72.0,-100.00,ESE,113,7.0,-999.0,59,-99.99,,,-99.99,,2013-06-23 23:01:00,
2013-06-23 18:22:00,89.0,74.0,-100.00,SE,135,6.0,-999.0,61,-99.99,,,-99.99,,2013-06-23 23:22:00,
2013-06-23 18:33:00,89.0,74.0,-100.00,SE,135,9.0,-999.0,62,-99.99,,,-99.99,,2013-06-23 23:33:00,
2013-06-23 18:44:00,89.0,74.0,-100.00,SE,135,9.0,-999.0,62,-99.99,,,-99.99,,2013-06-23 23:44:00,
2013-06-23 18:52:00,88.0,73.0,-100.00,ESE,113,4.0,-999.0,62,-99.99,,,-99.99,,2013-06-23 23:52:00,
2013-06-23 19:01:00,88.0,73.0,-100.00,East,90,5.0,-999.0,61,-99.99,,,-99.99,,2013-06-24 00:01:00,
2013-06-23 19:11:00,88.0,73.0,-100.00,East,90,5.0,-999.0,61,-99.99,,,-99.99,,2013-06-24 00:11:00,
2013-06-23 19:22:00,88.0,73.0,-100.00,East,90,8.0,-999.0,61,-99.99,,,-99.99,,2013-06-24 00:22:00,
2013-06-23 19:33:00,88.0,74.0,-100.00,East,90,7.0,-999.0,63,-99.99,,,-99.99,,2013-06-24 00:33:00,
2013-06-23 19:42:00,88.0,74.0,-100.00,East,90,7.0,-999.0,63,-99.99,,,-99.99,,2013-06-24 00:42:00,
2013-06-23 19:52:00,87.0,74.0,-100.00,ENE,68,8.0,-999.0,65,-99.99,,,-99.99,,2013-06-24 00:52:00,
2013-06-23 20:01:00,86.0,74.0,-100.00,ENE,68,8.0,-999.0,67,-99.99,,,-99.99,,2013-06-24 01:01:00,
2013-06-23 20:11:00,86.0,74.0,-100.00,ENE,68,8.0,-999.0,67,-99.99,,,-99.99,,2013-06-24 01:11:00,
2013-06-23 20:22:00,85.0,76.0,-100.00,ENE,68,9.0,-999.0,73,-99.99,,,-99.99,,2013-06-24 01:22:00,
2013-06-23 20:32:00,84.0,77.0,-100.00,ENE,68,9.0,-999.0,80,-99.99,,,-99.99,,2013-06-24 01:32:00,
2013-06-23 20:42:00,84.0,77.0,-100.00,ENE,68,9.0,-999.0,80,-99.99,,,-99.99,,2013-06-24 01:42:00,
2013-06-23 20:53:00,82.0,77.0,-100.00,ENE,68,8.0,-999.0,85,-99.99,,,-99.99,,2013-06-24 01:53:00,
2013-06-23 21:01:00,81.0,77.0,-100.00,ENE,68,7.0,-999.0,88,-99.99,,,-99.99,,2013-06-24 02:01:00,
2013-06-23 21:11:00,81.0,77.0,-100.00,ENE,68,7.0,-999.0,88,-99.99,,,-99.99,,2013-06-24 02:11:00,
2013-06-23 21:22:00,80.0,76.0,-100.00,ENE,68,9.0,-999.0,89,-99.99,,,-99.99,,2013-06-24 02:22:00,
2013-06-23 21:33:00,79.0,76.0,-100.00,ENE,68,11.0,-999.0,89,-99.99,,,-99.99,,2013-06-24 02:33:00,
2013-06-23 21:42:00,79.0,76.0,-100.00,ENE,68,11.0,-999.0,89,-99.99,,,-99.99,,2013-06-24 02:42:00,
2013-06-23 21:53:00,78.0,75.0,-100.00,ENE,68,9.0,-999.0,90,-99.99,,,-99.99,,2013-06-24 02:53:00,
2013-06-23 22:01:00,78.0,75.0,-100.00,ENE,68,9.0,-999.0,91,-99.99,,,-99.99,,2013-06-24 03:01:00,
2013-06-23 22:11:00,78.0,75.0,-100.00,ENE,68,9.0,-999.0,91,-99.99,,,-99.99,,2013-06-24 03:11:00,
2013-06-23 22:22:00,78.0,75.0,-100.00,ENE,68,8.0,-999.0,91,-99.99,,,-99.99,,2013-06-24 03:22:00,
2013-06-23 22:33:00,80.0,76.0,-100.00,East,90,9.0,-999.0,88,-99.99,,,-99.99,,2013-06-24 03:33:00,
2013-06-23 22:43:00,80.0,76.0,-100.00,East,90,9.0,-999.0,88,-99.99,,,-99.99,,2013-06-24 03:43:00,
2013-06-23 22:53:00,80.0,75.0,-100.00,East,90,7.0,-999.0,83,-99.99,,,-99.99,,2013-06-24 03:53:00,
2013-06-23 23:02:00,80.0,75.0,-100.00,East,90,7.0,-999.0,82,-99.99,,,-99.99,,2013-06-24 04:02:00,
2013-06-23 23:12:00,80.0,75.0,-100.00,East,90,7.0,-999.0,82,-99.99,,,-99.99,,2013-06-24 04:12:00,
2013-06-23 23:22:00,80.0,74.0,-100.00,ESE,113,8.0,-999.0,80,-99.99,,,-99.99,,2013-06-24 04:22:00,
2013-06-23 23:33:00,79.0,72.0,-100.00,SSE,158,9.0,-999.0,79,-99.99,,,-99.99,,2013-06-24 04:33:00,
2013-06-23 23:43:00,79.0,72.0,-100.00,SSE,158,9.0,-999.0,79,-99.99,,,-99.99,,2013-06-24 04:43:00,
2013-06-23 23:53:00,80.0,72.0,-100.00,SSE,158,8.0,-999.0,77,-99.99,,,-99.99,,2013-06-24 04:53:00,